Regional Weather Roundup
Issued by NWS Newport/Morehead, NC

Current Version | Previous Version | Text Only | Print | Product List | Glossary On
Versions: 1 2 3 4 5 6 7 8 9 10 11 12 13 14 15 16 17 18 19 20 21 22 23 24 25 26 27 28 29 30 31 32 33 34 35 36 37 38 39 40 41 42 43 44 45 46 47 48 49 50
000
ASUS42 KMHX 210122
RWRMHX
WEATHER ROUNDUP FOR EASTERN NORTH CAROLINA
NATIONAL WEATHER SERVICE NEWPORT/MOREHEAD CITY NC
900 PM EDT WED AUG 20 2014

NOTE: "FAIR" INDICATES FEW OR NO CLOUDS BELOW 12,000 FEET
WITH NO SIGNIFICANT WEATHER AND/OR OBSTRUCTIONS TO VISIBILITY

NCZ015>017-031-032-045>047-102-103-210200-
NORTH COAST

CITY           SKY/WX    TMP DP  RH WIND       PRES   REMARKS
EDENTON        CLEAR     78  74  87 SE7       30.01R
ELIZABETH CITY CLEAR     76  71  85 E8        29.99R
KITTY HAWK     PTCLDY    76  71  84 CALM      30.00R
MANTEO         PTCLDY    75  72  88 CALM      30.00R

$$

NCZ045>047-081-094-103-104-210200-
CENTRAL COAST

CITY           SKY/WX    TMP DP  RH WIND       PRES   REMARKS
FRISCO         MOCLDY    75  72  90 E3        30.00R
SWANQUARTER      N/A     77 N/A N/A E3        29.97R

$$

NCZ095-097-098-100-101-210200-
SOUTHERN COAST

CITY           SKY/WX    TMP DP  RH WIND       PRES   REMARKS
BEAUFORT       PTCLDY    81  75  82 SW5       29.99R
CEDAR ISLAND     N/A     79 N/A N/A S2        30.06R
JACKSONVILLE   CLEAR     78  75  90 S3        29.98R
NEWPORT        NOT AVBL
PINEY ISLAND   NOT AVBL
WILMINGTON     CLEAR     78  76  93 S3        29.98R


$$

NCZ011>013-027>030-043-044-078>080-089-090>093-098-210200-
COASTAL PLAIN

CITY           SKY/WX    TMP DP  RH WIND       PRES   REMARKS
AHOSKIE        MOCLDY    75  73  94 CALM      30.01R
CLINTON        CLEAR     77  75  95 CALM      30.00R
ELIZABETHTOWN  CLEAR     79  76  90 CALM      29.99R
GOLDSBORO      CLEAR     80  80  98 SE5       29.96R
GREENVILLE     CLEAR     77  75  94 CALM      30.00R
HAVELOCK       NOT AVBL
KENANSVILLE    CLEAR     76  74  91 CALM      29.99R
KINSTON        CLEAR     79  75  89 CALM      29.99R
NEW BERN       CLEAR     80  75  84 CALM      30.00R
RICHLANDS      CLEAR     75  72  88 CALM      29.99R
ROANOKE RAPIDS NOT AVBL
ROCKY MOUNT    PTCLDY    76  74  93 CALM      29.99R
WASHINGTON     CLEAR     78  74  87 SE5       30.00R
WHITEVILLE     CLEAR     77  74  90 CALM      29.99R

$$

AMZ130-135-150-152-154-156-158-170-250-252-270-ANZ085-086-088-633-658-670-210200-
MARINE OBSERVATIONS

STATION/POSITION TIME  TEMP    WIND        PRES    WAVE   SWELL
                       AIR SEA DIR/SP/G            HT/PER HT/PER
                 (UTC) (F)     (DEG/KT/KT) (MB)    (FT/S) (FT/S)
CHESAPEAKE LIGHT 0100   76      90/ 13/ 13 1016.1
BUOY 44014       0100   77 78   70/  6/  8 1015.6    3/ 7   2/ 7
DUCK             0100   77 79   70/  5/  7 1015.4
2E DUCK          0100                        N/A     2/ 5
OREGON INLET     0100   77 83   70/  4/  5 1015.8
BUOY 44095       0100      80                N/A     3/ 6
20E OREGON INLET NOT AVBL
HATTERAS CG      0100   79 82  100/  5/  6 1016.2
DIAMOND BUOY     0100   77     330/  2/  6 1015.7    3/ 6   2/ 6
CAPE LOOKOUT     0100   81     220/  4/  5 1015.6
BEAUFORT LAB     0100   81 82  230/  1/  5 1015.4
30 SE NEW RIVER  0100   82 83  220/  6/  8 1015.0    3/ 6   3/ 6
5 SE WRIGHTSVILL 0100   79 83  210/  6/  8   N/A
BUOY 41002       0015   81 81  240/ 12/ 14 1017.3    4/ 7   3/ 7
BUOY 41004       0100   84 84  230/ 12/ 14 1015.0    3/ 5   2/ 8

$$


USA.gov is the U.S. government's official web portal to all federal, state and local government web resources and services.